Volver al catálogo

ONEWEB-0314

ActivoComunicacionesPO
NORAD 49100·PAYLOAD·🇬🇧 United Kingdom

Lanzado Aug 21, 2021 desde Baikonur Cosmodrome

Loading…

Próximos Pases (próximas 24 horas)

TLE

ActualizadoSource: CelesTrak SupGP

Época: Sep 14, 2026, 23:57 UTC

1 49100C 21075AB  26257.99840694 -.00000487  00000+0 -12553-2 0  2575
2 49100  87.9218 348.0247 0001691 113.0880 283.5068 13.17651547    10

Sigue ONEWEB-0314 en tiempo real con AllMySat

Download on the App Store